Location: Wangen+im+Allg�u
(47.7098°N, 9.8383°E)
Time: 15:49:48
(UTC+01:00)

ISS - Pass Details

Date: 13 November 2017
Orbit: 402 x 407 km, 51.6° (Epoch: 24 November)

Event Time Altitude Azimuth Distance (km) Brightness Sun altitude
Exits shadow 06:35:11 12° 284° (WNW) 1,369 -1.8 -8.3°
Maximum altitude 06:38:05 43° 213° (SSW) 575 -3.2 -7.9°
Drops below altitude 10° 06:41:11 10° 140° (SE) 1,450 0.0 -7.4°
Sets 06:43:18 0° 134° (SE) 2,306 1.4 -7.0°
